Weather History for KTAN - May, 2013

Change the Weather History Date:

Tuesday, May 14, 2013

  Actual Average Record
Temperature  
Mean Temperature 46 °F -  
Max Temperature 60 °F 67 °F 80 °F (1961)
Min Temperature 34 °F 42 °F 29 °F (1987)
Degree Days  
Heating Degree Days 18    
Moisture  
Dew Point 29 °F    
Average Humidity 47    
Maximum Humidity 85    
Minimum Humidity 28    
Precipitation  
Precipitation 0.00 in - - ()
Sea Level Pressure  
Sea Level Pressure 30.02 in    
Wind  
Wind Speed 5 mph (NW)    
Max Wind Speed 12 mph    
Max Gust Speed 18 mph    
Visibility 10 miles    
Events      
Averages and records for this station are not official NWS values.
T = Trace of Precipitation, MM = Missing Value Source: NWS Daily Summary

Daily Weather History Graph

Daily Weather History Graph

Search for Another Location

Airport or City:

Trip Planner

Search our weather history database for the weather conditions in past years. The results will help you decide how hot, cold, wet, or windy it might be!

Date:

Astronomy

May. 14, 2013 Rise Set
Actual Time 5:24 AM EDT 7:56 PM EDT
Civil Twilight 4:53 AM EDT 8:28 PM EDT
Nautical Twilight 4:13 AM EDT 9:08 PM EDT
Astronomical Twilight 3:29 AM EDT 9:53 PM EDT
Moon 9:01 AM EDT (5/14) 11:41 PM EDT (5/14)
Length of Visible Light 15h 35m
Length of Day
14h 31m
Waxing Crescent, 19% of the Moon is Illuminated
May 14
Waxing Crescent
May 18
First Quarter
May 25
Full
May 31
Last Quarter
Jun 8
New

Hourly Weather History & Observations

Time (EDT) Temp. Windchill Dew Point Humidity Pressure Visibility Wind Dir Wind Speed Gust Speed Precip Events Conditions
12:52 AM 48.0 °F - 27.0 °F 44% 30.02 in 10.0 mi NW 8.1 mph - N/A   Overcast
1:52 AM 46.0 °F 43.9 °F 28.0 °F 50% 30.01 in 10.0 mi NNW 4.6 mph - N/A   Overcast
2:52 AM 42.1 °F - 28.9 °F 60% 30.01 in 10.0 mi Calm Calm - N/A   Clear
3:52 AM 36.0 °F - 30.0 °F 79% 30.01 in 10.0 mi Calm Calm - N/A   Clear
4:52 AM 34.0 °F - 30.0 °F 85% 30.01 in 10.0 mi Calm Calm - N/A   Clear
5:52 AM 37.0 °F - 30.9 °F 79% 30.02 in 10.0 mi North - - N/A   Mostly Cloudy
6:52 AM 43.0 °F - 32.0 °F 65% 30.04 in 10.0 mi Calm Calm - N/A   Overcast
7:52 AM 48.0 °F - 30.9 °F 52% 30.04 in 10.0 mi NNW 9.2 mph - N/A   Overcast
8:52 AM 53.1 °F - 30.9 °F 43% 30.04 in 10.0 mi North 10.4 mph - N/A   Clear
9:52 AM 55.0 °F - - N/A% 30.03 in 10.0 mi NNE 6.9 mph 17.3 mph N/A   Clear
10:52 AM 55.9 °F - 28.0 °F 34% 30.03 in 10.0 mi Variable 4.6 mph - N/A   Mostly Cloudy
11:52 AM 55.9 °F - 26.1 °F 32% 30.03 in 10.0 mi NW 8.1 mph - N/A   Mostly Cloudy
12:52 PM 57.9 °F - 25.0 °F 28% 30.02 in 10.0 mi West 11.5 mph 18.4 mph N/A   Overcast
1:52 PM 55.9 °F - 28.0 °F 34% 30.01 in 10.0 mi WNW 9.2 mph 16.1 mph N/A   Mostly Cloudy
2:52 PM 57.0 °F - 27.0 °F 32% 30.01 in 10.0 mi West 6.9 mph - N/A   Overcast
3:52 PM 57.9 °F - 26.1 °F 30% 29.99 in 10.0 mi West 9.2 mph - N/A   Overcast
4:52 PM 57.9 °F - 26.1 °F 30% 29.98 in 10.0 mi Variable 5.8 mph - N/A   Overcast
5:52 PM 59.0 °F - 26.1 °F 28% 29.98 in 10.0 mi NW 8.1 mph - N/A   Overcast
6:52 PM 57.9 °F - 25.0 °F 28% 29.98 in 10.0 mi WNW 8.1 mph - N/A   Overcast
7:52 PM 55.0 °F - 26.1 °F 33% 30.00 in 10.0 mi WNW 6.9 mph - N/A   Overcast
8:52 PM 48.0 °F - 32.0 °F 54% 30.02 in 10.0 mi Calm Calm - N/A   Overcast
9:52 PM 52.0 °F - 30.0 °F 43% 30.05 in 10.0 mi West 4.6 mph - N/A   Overcast
10:52 PM 50.0 °F - 32.0 °F 50% 30.04 in 10.0 mi Calm Calm - N/A   Overcast
11:52 PM 41.0 °F - 33.1 °F 73% 30.05 in 10.0 mi Calm Calm - N/A   Clear